Regional Weather Roundup
Issued by NWS

Home | Current Version | Previous Version | Text Only | Print | Product List | Glossary Off
Versions: 1 2 3 4 5 6 7 8 9 10 11 12 13 14 15 16 17 18 19 20 21 22 23 24 25 26 27

000
ASUS45 KBOU 230807
RWRCO

WEATHER ROUNDUP FOR COLORADO
NATIONAL WEATHER SERVICE DENVER/BOULDER CO
200 AM MDT SAT JUL 23 2016

NOTE: "FAIR" INDICATES FEW OR NO CLOUDS BELOW 12000 FEET WITH NO
SIGNIFICANT WEATHER AND/OR OBSTRUCTIONS TO VISIBILITY.

COZ001>005-013-030-031-230900-
...NORTHWEST COLORADO...

CITY           SKY/WX    TMP DP  RH WIND       PRES   REMARKS
CRAIG          FAIR      57  46  66 E3        30.26F
HAYDEN         FAIR      59  43  55 E5        30.29S
MEEKER         FAIR      62  51  67 CALM      30.28F
MOUNT WERNER   NOT AVBL
STEAMBOAT SPGS FAIR      56  46  69 CALM      30.32S
WALDEN         FAIR      50  41  71 SE7       30.41R
$$

COZ006>008-011-230900-
...WEST CENTRAL VALLEYS...

CITY           SKY/WX    TMP DP  RH WIND       PRES   REMARKS
GRAND JUNCTION FAIR      71  55  56 S3        30.17F
MONTROSE       FAIR      67  49  52 E5        30.28S
EAGLE          FAIR      57  50  77 E7        30.35S
RIFLE          FAIR      65  54  67 E6        30.22F
DELTA          FAIR      68  56  64 CALM      30.23F
NUCLA          FAIR      63  52  67 CALM      30.31F
$$

COZ017>023-064>068-230900-
...SOUTHWEST COLORADO...

CITY           SKY/WX    TMP DP  RH WIND       PRES   REMARKS
DURANGO        FAIR      69  46  43 CALM      30.29R
CORTEZ         FAIR      64  47  53 NE8       30.25F
PAGOSA SPRINGS FAIR      65  46  49 SW3       30.40R
TELLURIDE      FAIR      56  48  76 CALM      30.53S
WOLF CREEK PAS FAIR      52  34  50 SW8       30.74F
$$

COZ009-010-012-014-032>034-037-058>063-230900-
...CENTRAL COLORADO...

CITY           SKY/WX    TMP DP  RH WIND       PRES   REMARKS
ASPEN          FAIR      53  46  77 CALM      30.41R
BUENA VISTA    FAIR      58  46  64 NW13      30.39F
COPPER MTN     FAIR      54  36  50 W13       30.71F
BERTHOUD PASS  FAIR      45  32  61 NW23      30.71F
COTTONWOOD PAS FAIR      61  41  48 W13       30.53F
GUNNISON       FAIR      54  46  76 NE3       30.46R
KREMMLING      FAIR      52  45  76 CALM      30.40S
LEADVILLE      FAIR      45  41  86 NE7       30.54F
SALIDA         FAIR      61  49  63 CALM      30.44S
SUNLIGHT       FAIR      54  43  66 SW3       30.63F
WILKERSON PASS FAIR      52  36  54 NW6       30.66F
$$

COZ069>075-230900-
...SAN LUIS VALLEY/SANGRE DE CRISTO MOUNTAINS...

CITY           SKY/WX    TMP DP  RH WIND       PRES   REMARKS
ALAMOSA        FAIR      54  46  74 SW6       30.36S
LA VETA PASS   FAIR      55  41  58 SW3       30.54F
SAGUACHE       FAIR      59  46  63 NW17      30.40S
$$

COZ035-036-038>040-230900-
...NORTHERN COLORADO FRONT RANGE...

CITY           SKY/WX    TMP DP  RH WIND       PRES   REMARKS
DENVER INTL AP FAIR      72  50  45 SW7       30.12S
DMNS CITY PARK   N/A     71  51  50 S2G8      30.12S
AURORA         PTCLDY    68  50  52 SW9       30.14F
FRONT RANGE AP NOT AVBL
ERIE MUNI ARPT FAIR      70  51  50 CALM      30.10S
BOULDER MUN AP FAIR      75  45  33 E5        30.11R
CENTENNIAL     FAIR      70  46  42 W3        30.16F
BROOMFIELD     FAIR      72  46  40 NE6       30.15R
LONGMONT       FAIR      71  54  54 CALM      30.12R
$$

COZ041-046-047-076>085-087-088-230900-
...PIKES PEAK/PALMER DIVIDE AND SOUTHERN FOOTHILLS...

CITY           SKY/WX    TMP DP  RH WIND       PRES   REMARKS
COLO. SPRINGS  FAIR      75  46  35 N14       30.19F
A. F. ACADEMY  FAIR      70  46  42 VRB5      30.21F
SCHRIEVER AFB  NOT AVBL
ELLICOTT       FAIR     N/A N/A N/A CALM      30.17S
FALCON         NOT AVBL
FORT CARSON    FAIR      69  49  48 NW7       30.15S
LIMON          FAIR      70  52  52 SW6       30.11S
MONUMENT HILL  FAIR      61  48  63 SW7       30.27F
TRINIDAD       NOT AVBL
$$

COZ042>045-048>051-090-091-230900-
...NORTHEAST COLORADO...

CITY           SKY/WX    TMP DP  RH WIND       PRES   REMARKS
GREELEY ARPT   FAIR      68  63  83 CALM      30.09F
AKRON          FAIR      68  63  84 CALM      30.05F
BURLINGTON     FAIR      73  56  54 CALM      30.02R
WRAY           NOT AVBL
STERLING       FAIR      70  64  83 N3        30.01S
HOLYOKE        FAIR      73  68  83 W5        29.97F
FORT MORGAN    FAIR      69  61  76 CALM      30.06R
$$

COZ086-089-092>099-230900-
...SOUTHEAST COLORADO...

CITY           SKY/WX    TMP DP  RH WIND       PRES   REMARKS
PUEBLO         FAIR      69  58  67 CALM      30.06S
LA JUNTA       FAIR      77  53  43 S5        30.02S
LAMAR          FAIR      80  53  39 W3        29.96R
SPRINGFIELD      N/A     78  49  35 SW10      30.04F
$$




USA.gov is the U.S. government's official web portal to all federal, state and local government web resources and services.